Weather in Ust-Omchug

Russia / Magadan District     61°08′01″N   149°38′05″E
temp.,
°C
wind,
m/s
gust,
m/s
humid.,
%
clouds,
%
prec.,
mm/h
press.,
hPa
HPBL,
m
17 august, wed
wed1723:00+7nnw3596100 1.1 998248
02:00+6nnw3594100 0.9 998251
05:00+6nnw2495100 1.3 998201
08:00+6nnw3494100 0.4 999229
11:00+7nnw2389100 0.9 998330
14:00+8n2386100 0.0 998412
17:00+8n2389100 0.1 999285
20:00+7n2292100 0.1 100084
18 august, thu
thu1823:00+7n2291100 0.1 100037
02:00+7nnw119198 0.0 100011
05:00+5sw119279 0.0 100110
08:00+8sse12825 0.0 1001265
11:00+12ssw2265100 0.0 999863
14:00+15sw4559100 0.0 9991350
17:00+13sw6771100 0.1 1000914
20:00+11sw3481100 0.0 1002145
19 august, fri
fri1923:00+10sw2286100 0.0 100372
02:00+9ssw2389100 0.0 1004143
05:00+8sse1196100 2.8 100463
08:00+9s1292100 1.3 1004220
11:00+9sse2292100 3.6 1004245
14:00+9ese1294100 5.3 1004190
17:00+8e2295100 9.3 1003176
20:00+8se2296100 4.1 100492
20 august, sat
sat2023:00+8ese1194100 5.9 100431
02:00+8sse1193100 0.2 100423
05:00+7s2295100 1.9 100546
08:00+8ssw2293100 0.1 1007113
11:00+8ssw2389100 0.3 1008247
14:00+9sw2485100 0.1 1009606
17:00+9ssw3482100 0.1 1009647
20:00+9sw2280100 0.1 101037
21 august, sun
sun2123:00+7w0187100 0.1 101010
02:00+5s119076 0.0 101010
05:00+6ne1190100 0.0 100910
08:00+9ne1179100 0.0 1009147
11:00+12ene126692 0.0 1007547
14:00+15ene2356100 0.0 1005916
17:00+13ene1274100 0.2 1005113
20:00+12nne2272100 0.1 100417